DAL1535 KPHX-KSLC

Flight info

Callsign DAL1535
Flight time 1h 14m
Altitude 28000
Route QUAKY1 GCN BCE PITTT2
Aircraft A21N/M-SDE2E3FGHIRWXY/LB1

Departure

Time 2026-05-04 13:30
Airport Phoenix Sky Harbor International Airport (KPHX)

Arrival

Time 2026-05-04 14:44
Airport Salt Lake City International Airport (KSLC)
Time Latitude Longitude Altitude Speed Heading
2026-05-04 13:08 33.43376 -112.01130 1130 ft 0 kts 360°
2026-05-04 13:18 33.43353 -112.01129 1132 ft 4 kts 354°
2026-05-04 13:18 33.43326 -112.01124 1131 ft 4 kts 345°
2026-05-04 13:18 33.43301 -112.01113 1134 ft 4 kts 324°
2026-05-04 13:18 33.43288 -112.01091 1132 ft 3 kts 273°
2026-05-04 13:19 33.43287 -112.01083 1130 ft 0 kts 270°
2026-05-04 13:24 33.43287 -112.01086 1129 ft 2 kts 270°
2026-05-04 13:24 33.43287 -112.01118 1129 ft 6 kts 270°
2026-05-04 13:25 33.43215 -112.01159 1129 ft 13 kts 111°
2026-05-04 13:25 33.43216 -112.01046 1132 ft 15 kts 87°
2026-05-04 13:25 33.43214 -112.00914 1133 ft 17 kts 91°
2026-05-04 13:25 33.43214 -112.00770 1133 ft 18 kts 90°
2026-05-04 13:26 33.43214 -112.00613 1134 ft 19 kts 90°
2026-05-04 13:26 33.43214 -112.00448 1132 ft 20 kts 90°
2026-05-04 13:26 33.43215 -112.00334 1134 ft 21 kts 90°
2026-05-04 13:26 33.43214 -112.00152 1134 ft 22 kts 90°
2026-05-04 13:27 33.43213 -111.99962 1131 ft 23 kts 90°
2026-05-04 13:27 33.43213 -111.99776 1133 ft 19 kts 90°
2026-05-04 13:27 33.43214 -111.99614 1132 ft 20 kts 90°
2026-05-04 13:27 33.43212 -111.99466 1132 ft 18 kts 91°
2026-05-04 13:28 33.43186 -111.99344 1129 ft 15 kts 152°
2026-05-04 13:28 33.43113 -111.99366 1131 ft 8 kts 228°
2026-05-04 13:28 33.43103 -111.99428 1129 ft 0 kts 270°
2026-05-04 13:29 33.43103 -111.99471 1129 ft 23 kts 270°
2026-05-04 13:29 33.43104 -111.99970 1129 ft 96 kts 269°
2026-05-04 13:29 33.43104 -112.01005 1129 ft 147 kts 270°
2026-05-04 13:29 33.43103 -112.02328 1308 ft 169 kts 269°
2026-05-04 13:30 33.43094 -112.03770 1766 ft 173 kts 266°
2026-05-04 13:30 33.43068 -112.05213 2341 ft 174 kts 269°
2026-05-04 13:30 33.43141 -112.06686 2785 ft 184 kts 272°
2026-05-04 13:30 33.43209 -112.08267 3248 ft 197 kts 269°
2026-05-04 13:31 33.43251 -112.09971 3699 ft 214 kts 269°
2026-05-04 13:31 33.43297 -112.11798 4173 ft 232 kts 270°
2026-05-04 13:31 33.43354 -112.13789 4756 ft 244 kts 270°
2026-05-04 13:31 33.43432 -112.15790 5481 ft 249 kts 273°
2026-05-04 13:32 33.43962 -112.17810 6293 ft 257 kts 299°
2026-05-04 13:32 33.45222 -112.19305 7014 ft 266 kts 328°
2026-05-04 13:32 33.47034 -112.19927 7737 ft 274 kts 355°
2026-05-04 13:32 33.48931 -112.19892 8433 ft 279 kts
2026-05-04 13:33 33.50858 -112.19782 9150 ft 282 kts
2026-05-04 13:33 33.52838 -112.19658 9833 ft 288 kts
2026-05-04 13:33 33.54826 -112.19167 10489 ft 295 kts 12°
2026-05-04 13:33 33.56834 -112.18548 11198 ft 300 kts 12°
2026-05-04 13:34 33.58876 -112.17923 11864 ft 303 kts 11°
2026-05-04 13:34 33.60913 -112.17234 12549 ft 309 kts 19°
2026-05-04 13:34 33.62739 -112.15824 13149 ft 317 kts 43°
2026-05-04 13:34 33.64273 -112.13903 13763 ft 321 kts 47°
2026-05-04 13:35 33.65765 -112.11911 14298 ft 326 kts 47°
2026-05-04 13:35 33.68941 -112.07747 14954 ft 354 kts 46°
2026-05-04 13:35 33.70664 -112.05533 15213 ft 371 kts 45°
2026-05-04 13:36 33.72464 -112.03228 15472 ft 387 kts 45°
2026-05-04 13:36 33.74440 -112.00983 15709 ft 400 kts 33°
2026-05-04 13:36 33.76925 -111.99430 16030 ft 403 kts 13°
2026-05-04 13:36 33.79661 -111.98794 16621 ft 399 kts
2026-05-04 13:37 33.82426 -111.98430 17259 ft 401 kts
2026-05-04 13:37 33.85207 -111.98027 17893 ft 405 kts
2026-05-04 13:37 33.87980 -111.97562 18482 ft 408 kts
2026-05-04 13:37 33.90802 -111.97054 18970 ft 412 kts
2026-05-04 13:38 33.93663 -111.96521 19466 ft 416 kts
2026-05-04 13:38 33.96544 -111.95974 19928 ft 420 kts
2026-05-04 13:38 33.99444 -111.95421 20401 ft 424 kts
2026-05-04 13:38 34.02364 -111.94864 20879 ft 427 kts
2026-05-04 13:39 34.05322 -111.94299 21355 ft 431 kts
2026-05-04 13:39 34.08269 -111.93768 21814 ft 432 kts 357°
2026-05-04 13:39 34.11234 -111.93748 22243 ft 423 kts 346°
2026-05-04 13:39 34.14173 -111.94064 22710 ft 425 kts 344°
2026-05-04 13:40 34.17137 -111.94410 23153 ft 429 kts 344°
2026-05-04 13:40 34.20089 -111.94746 23574 ft 433 kts 344°
2026-05-04 13:40 34.23108 -111.95085 23952 ft 436 kts 344°
2026-05-04 13:40 34.26099 -111.95418 24337 ft 438 kts 344°
2026-05-04 13:41 34.29148 -111.95754 24743 ft 440 kts 344°
2026-05-04 13:41 34.32205 -111.96091 25124 ft 442 kts 344°
2026-05-04 13:41 34.35273 -111.96427 25512 ft 444 kts 344°
2026-05-04 13:42 34.41461 -111.97111 26294 ft 448 kts 343°
2026-05-04 13:42 34.44577 -111.97456 26653 ft 451 kts 343°
2026-05-04 13:42 34.47701 -111.97801 27025 ft 452 kts 343°
2026-05-04 13:42 34.50841 -111.98151 27379 ft 454 kts 343°
2026-05-04 13:43 34.53997 -111.98502 27738 ft 456 kts 343°
2026-05-04 13:43 34.57151 -111.98849 27888 ft 449 kts 343°
2026-05-04 13:43 34.60252 -111.99188 27916 ft 447 kts 343°
2026-05-04 13:43 34.63351 -111.99530 27930 ft 447 kts 343°
2026-05-04 13:44 34.66451 -111.99873 27937 ft 447 kts 343°
2026-05-04 13:44 34.69550 -112.00220 27944 ft 447 kts 343°
2026-05-04 13:44 34.72644 -112.00563 27951 ft 447 kts 343°
2026-05-04 13:44 34.75738 -112.00910 27963 ft 447 kts 343°
2026-05-04 13:45 34.78839 -112.01256 27967 ft 447 kts 343°
2026-05-04 13:45 34.81939 -112.01604 27983 ft 447 kts 343°
2026-05-04 13:45 34.85018 -112.01953 27982 ft 447 kts 343°
2026-05-04 13:45 34.88114 -112.02301 27982 ft 447 kts 343°
2026-05-04 13:46 34.91219 -112.02646 27971 ft 447 kts 343°
2026-05-04 13:46 34.94315 -112.02998 27960 ft 447 kts 343°
2026-05-04 13:46 34.97407 -112.03347 27948 ft 447 kts 343°
2026-05-04 13:46 35.00499 -112.03697 27932 ft 447 kts 343°
2026-05-04 13:47 35.03601 -112.04046 27913 ft 447 kts 343°
2026-05-04 13:47 35.06703 -112.04395 27932 ft 447 kts 343°
2026-05-04 13:47 35.09812 -112.04741 27961 ft 448 kts 343°
2026-05-04 13:47 35.12919 -112.05092 27987 ft 448 kts 343°
2026-05-04 13:48 35.19093 -112.05796 28037 ft 449 kts 343°
2026-05-04 13:48 35.25310 -112.06503 28076 ft 449 kts 343°
2026-05-04 13:49 35.31541 -112.07210 28097 ft 450 kts 343°
2026-05-04 13:49 35.37793 -112.07919 28079 ft 452 kts 344°
2026-05-04 13:50 35.44061 -112.08538 28041 ft 453 kts 344°
2026-05-04 13:50 35.50348 -112.09147 27994 ft 454 kts 344°
2026-05-04 13:51 35.53490 -112.09458 27966 ft 454 kts 344°
2026-05-04 13:51 35.56638 -112.09811 27942 ft 453 kts 343°
2026-05-04 13:51 35.59762 -112.10197 27972 ft 452 kts 342°
2026-05-04 13:51 35.62894 -112.10597 28006 ft 452 kts 342°
2026-05-04 13:52 35.72318 -112.11757 28103 ft 454 kts 342°
2026-05-04 13:53 35.78609 -112.12511 28154 ft 454 kts 342°
2026-05-04 13:53 35.84869 -112.13264 28154 ft 455 kts 342°
2026-05-04 13:54 35.94351 -112.14409 28101 ft 455 kts 342°
2026-05-04 13:55 36.03835 -112.15291 28095 ft 457 kts 344°
2026-05-04 13:55 36.13337 -112.16131 28017 ft 457 kts 344°
2026-05-04 13:56 36.19684 -112.16699 27964 ft 458 kts 344°
2026-05-04 13:56 36.26032 -112.17272 27909 ft 457 kts 345°
2026-05-04 13:57 36.29198 -112.17556 27876 ft 457 kts 345°
2026-05-04 13:57 36.32368 -112.17838 27859 ft 456 kts 345°
2026-05-04 13:58 36.41867 -112.18693 27848 ft 456 kts 345°
2026-05-04 13:58 36.48188 -112.19257 27840 ft 456 kts 345°
2026-05-04 13:58 36.51348 -112.19545 27843 ft 455 kts 345°
2026-05-04 13:59 36.54509 -112.19839 27833 ft 455 kts 345°
2026-05-04 13:59 36.57670 -112.20127 27833 ft 455 kts 345°
2026-05-04 13:59 36.63974 -112.20696 27828 ft 453 kts 345°
2026-05-04 14:00 36.67123 -112.20985 27823 ft 453 kts 345°
2026-05-04 14:00 36.73336 -112.21554 27833 ft 452 kts 345°
2026-05-04 14:00 36.76467 -112.21841 27831 ft 451 kts 345°
2026-05-04 14:01 36.79642 -112.22130 27824 ft 451 kts 345°
2026-05-04 14:01 36.82738 -112.22411 27821 ft 450 kts 345°
2026-05-04 14:01 36.88990 -112.22978 27815 ft 450 kts 345°
2026-05-04 14:02 36.92107 -112.23259 27815 ft 449 kts 345°
2026-05-04 14:02 36.95222 -112.23543 27811 ft 449 kts 345°
2026-05-04 14:02 36.98337 -112.23827 27809 ft 448 kts 345°
2026-05-04 14:02 37.01451 -112.24113 27812 ft 448 kts 345°
2026-05-04 14:03 37.04565 -112.24397 27816 ft 448 kts 345°
2026-05-04 14:03 37.07665 -112.24680 27818 ft 447 kts 345°
2026-05-04 14:03 37.10766 -112.24963 27823 ft 447 kts 346°
2026-05-04 14:03 37.13869 -112.25250 27821 ft 446 kts 345°
2026-05-04 14:04 37.20024 -112.25824 27822 ft 445 kts 346°
2026-05-04 14:04 37.23116 -112.26112 27823 ft 445 kts 346°
2026-05-04 14:04 37.26203 -112.26398 27824 ft 445 kts 346°
2026-05-04 14:05 37.32376 -112.26969 27831 ft 444 kts 346°
2026-05-04 14:05 37.35446 -112.27254 27836 ft 444 kts 346°
2026-05-04 14:05 37.38535 -112.27542 27850 ft 444 kts 346°
2026-05-04 14:06 37.41618 -112.27826 27893 ft 445 kts 346°
2026-05-04 14:06 37.44753 -112.28121 27924 ft 456 kts 346°
2026-05-04 14:06 37.47956 -112.28423 27959 ft 467 kts 346°
2026-05-04 14:06 37.51235 -112.28729 27999 ft 474 kts 346°
2026-05-04 14:07 37.54451 -112.29013 28003 ft 455 kts 346°
2026-05-04 14:07 37.60660 -112.29584 28042 ft 445 kts 346°
2026-05-04 14:08 37.65752 -112.30070 28074 ft 445 kts 346°
2026-05-04 14:08 37.71925 -112.30732 28085 ft 444 kts 345°
2026-05-04 14:09 37.80992 -112.31849 28050 ft 445 kts 345°
2026-05-04 14:10 37.90241 -112.33002 27976 ft 445 kts 345°
2026-05-04 14:10 37.93328 -112.33388 27949 ft 446 kts 345°
2026-05-04 14:10 37.96379 -112.33760 27918 ft 445 kts 345°
2026-05-04 14:10 37.99493 -112.34139 27892 ft 444 kts 345°
2026-05-04 14:11 38.02567 -112.34522 27869 ft 455 kts 345°
2026-05-04 14:11 38.09032 -112.35341 27873 ft 477 kts 346°
2026-05-04 14:11 38.12357 -112.35752 27877 ft 481 kts 346°
2026-05-04 14:12 38.15631 -112.36139 27848 ft 461 kts 346°
2026-05-04 14:12 38.18799 -112.36520 27836 ft 458 kts 346°
2026-05-04 14:12 38.25163 -112.37316 27845 ft 449 kts 346°
2026-05-04 14:13 38.28288 -112.37706 27842 ft 454 kts 346°
2026-05-04 14:13 38.31461 -112.38111 27861 ft 465 kts 346°
2026-05-04 14:13 38.34721 -112.38526 27870 ft 475 kts 347°
2026-05-04 14:13 38.38048 -112.38941 27871 ft 486 kts 347°
2026-05-04 14:14 38.41435 -112.39360 27853 ft 488 kts 347°
2026-05-04 14:14 38.47905 -112.40137 27807 ft 446 kts 347°
2026-05-04 14:14 38.50990 -112.40524 27807 ft 447 kts 347°
2026-05-04 14:15 38.57224 -112.41319 27821 ft 449 kts 347°
2026-05-04 14:15 38.63392 -112.42089 27828 ft 449 kts 347°
2026-05-04 14:16 38.69622 -112.42864 27857 ft 449 kts 347°
2026-05-04 14:16 38.72723 -112.43250 27870 ft 449 kts 347°
2026-05-04 14:17 38.79004 -112.44050 27907 ft 449 kts 347°
2026-05-04 14:17 38.82118 -112.44447 27924 ft 449 kts 347°
2026-05-04 14:17 38.88349 -112.45237 27955 ft 449 kts 347°
2026-05-04 14:18 38.91461 -112.45632 27964 ft 449 kts 347°
2026-05-04 14:18 38.97680 -112.46419 27963 ft 449 kts 347°
2026-05-04 14:19 39.03894 -112.47199 27946 ft 449 kts 347°
2026-05-04 14:19 39.07013 -112.47595 27929 ft 449 kts 347°
2026-05-04 14:19 39.10118 -112.47992 27908 ft 448 kts 347°
2026-05-04 14:19 39.13220 -112.48389 27893 ft 448 kts 348°
2026-05-04 14:20 39.16311 -112.48785 27867 ft 448 kts 348°
2026-05-04 14:20 39.19417 -112.49181 27889 ft 447 kts 348°
2026-05-04 14:20 39.22495 -112.49572 27913 ft 447 kts 348°
2026-05-04 14:21 39.28681 -112.50316 27947 ft 449 kts 352°
2026-05-04 14:21 39.31837 -112.50039 27951 ft 460 kts
2026-05-04 14:21 39.34961 -112.49087 27959 ft 462 kts
2026-05-04 14:21 39.38042 -112.48022 27748 ft 454 kts 10°
2026-05-04 14:22 39.41055 -112.46976 27440 ft 441 kts 10°
2026-05-04 14:22 39.43987 -112.45981 27160 ft 429 kts
2026-05-04 14:22 39.46843 -112.45028 26885 ft 420 kts
2026-05-04 14:22 39.49630 -112.44106 26614 ft 418 kts 10°
2026-05-04 14:23 39.55236 -112.42258 26083 ft 413 kts 11°
2026-05-04 14:23 39.58008 -112.41343 25695 ft 409 kts 11°
2026-05-04 14:23 39.60787 -112.40420 25193 ft 406 kts 12°
2026-05-04 14:24 39.63514 -112.39512 24686 ft 404 kts 13°
2026-05-04 14:24 39.66193 -112.38618 24149 ft 403 kts 13°
2026-05-04 14:24 39.68900 -112.37713 23598 ft 402 kts 14°
2026-05-04 14:24 39.71607 -112.36808 23006 ft 400 kts 14°
2026-05-04 14:25 39.74294 -112.35912 22440 ft 397 kts 14°
2026-05-04 14:25 39.79601 -112.34129 21347 ft 392 kts 15°
2026-05-04 14:25 39.82228 -112.33249 20826 ft 389 kts 15°
2026-05-04 14:26 39.84841 -112.32371 20314 ft 386 kts 15°
2026-05-04 14:26 39.87438 -112.31500 19826 ft 382 kts 15°
2026-05-04 14:26 39.89997 -112.30639 19363 ft 377 kts 15°
2026-05-04 14:26 39.92515 -112.29791 18921 ft 371 kts 15°
2026-05-04 14:27 39.94986 -112.28961 18487 ft 366 kts 15°
2026-05-04 14:27 39.97456 -112.28130 18053 ft 361 kts 15°
2026-05-04 14:27 39.99863 -112.27318 17634 ft 354 kts 15°
2026-05-04 14:27 40.02221 -112.26522 17280 ft 346 kts 15°
2026-05-04 14:28 40.04547 -112.25738 16920 ft 344 kts 15°
2026-05-04 14:28 40.06852 -112.24958 16606 ft 343 kts 15°
2026-05-04 14:28 40.09164 -112.24175 16336 ft 342 kts 15°
2026-05-04 14:28 40.11469 -112.23392 16093 ft 341 kts 15°
2026-05-04 14:29 40.16049 -112.21839 15672 ft 339 kts 14°
2026-05-04 14:29 40.20601 -112.20294 15295 ft 337 kts 14°
2026-05-04 14:30 40.22871 -112.19526 15107 ft 336 kts 14°
2026-05-04 14:30 40.25124 -112.18758 14915 ft 335 kts 14°
2026-05-04 14:30 40.29587 -112.17238 14546 ft 333 kts 14°
2026-05-04 14:31 40.31829 -112.16473 14368 ft 332 kts 14°
2026-05-04 14:31 40.36287 -112.14937 14031 ft 330 kts 14°
2026-05-04 14:32 40.40720 -112.13418 13692 ft 329 kts 14°
2026-05-04 14:32 40.42944 -112.12664 13496 ft 328 kts 14°
2026-05-04 14:32 40.45147 -112.11918 13304 ft 328 kts 14°
2026-05-04 14:32 40.47364 -112.11163 13130 ft 328 kts 14°
2026-05-04 14:33 40.49578 -112.10408 12933 ft 328 kts 14°
2026-05-04 14:33 40.51790 -112.09657 12752 ft 328 kts 14°
2026-05-04 14:33 40.53967 -112.08916 12568 ft 328 kts 14°
2026-05-04 14:33 40.55820 -112.08361 12409 ft 327 kts
2026-05-04 14:34 40.58087 -112.08115 12229 ft 326 kts
2026-05-04 14:34 40.60347 -112.07975 12109 ft 325 kts
2026-05-04 14:34 40.62606 -112.07842 12089 ft 325 kts
2026-05-04 14:34 40.64853 -112.07943 11975 ft 321 kts 354°
2026-05-04 14:35 40.67066 -112.08201 11578 ft 316 kts 353°
2026-05-04 14:35 40.69243 -112.08469 11271 ft 313 kts 353°
2026-05-04 14:35 40.71437 -112.08735 11073 ft 323 kts 353°
2026-05-04 14:35 40.73625 -112.08994 11053 ft 307 kts 353°
2026-05-04 14:36 40.75685 -112.09235 11050 ft 289 kts 353°
2026-05-04 14:36 40.77712 -112.09477 11075 ft 300 kts 353°
2026-05-04 14:36 40.79773 -112.09725 11087 ft 290 kts 353°
2026-05-04 14:36 40.81717 -112.09953 11072 ft 272 kts 353°
2026-05-04 14:37 40.83550 -112.10171 11042 ft 254 kts 353°
2026-05-04 14:37 40.85272 -112.10379 10793 ft 245 kts 353°
2026-05-04 14:37 40.86962 -112.10582 10403 ft 243 kts 353°
2026-05-04 14:37 40.88645 -112.10785 9986 ft 243 kts 353°
2026-05-04 14:38 40.90329 -112.10987 9548 ft 242 kts 353°
2026-05-04 14:38 40.91980 -112.11183 9150 ft 242 kts 353°
2026-05-04 14:38 40.93597 -112.11370 9086 ft 222 kts 354°
2026-05-04 14:38 40.95046 -112.11037 8969 ft 206 kts 25°
2026-05-04 14:39 40.96168 -112.09954 8792 ft 193 kts 47°
2026-05-04 14:39 40.96898 -112.08521 8441 ft 188 kts 67°
2026-05-04 14:39 40.97234 -112.06871 8055 ft 185 kts 86°
2026-05-04 14:40 40.96644 -112.03696 7307 ft 176 kts 126°
2026-05-04 14:40 40.95839 -112.02511 6964 ft 171 kts 144°
2026-05-04 14:40 40.94830 -112.01747 6750 ft 170 kts 160°
2026-05-04 14:40 40.93687 -112.01404 6611 ft 169 kts 174°
2026-05-04 14:41 40.92509 -112.01304 6376 ft 168 kts 176°
2026-05-04 14:41 40.91348 -112.01177 6161 ft 161 kts 175°
2026-05-04 14:41 40.89274 -112.00938 6020 ft 148 kts 175°
2026-05-04 14:42 40.87216 -112.00696 5640 ft 148 kts 174°
2026-05-04 14:42 40.86188 -112.00576 5403 ft 149 kts 174°
2026-05-04 14:42 40.85160 -112.00464 5150 ft 148 kts 175°
2026-05-04 14:43 40.84137 -112.00366 4966 ft 146 kts 172°
2026-05-04 14:43 40.83132 -112.00184 4766 ft 146 kts 172°
2026-05-04 14:43 40.82118 -112.00085 4525 ft 144 kts 174°
2026-05-04 14:43 40.81115 -111.99969 4337 ft 145 kts 173°
2026-05-04 14:44 40.80108 -111.99859 4245 ft 141 kts 172°
2026-05-04 14:44 40.79214 -111.99740 4236 ft 113 kts 175°
2026-05-04 14:44 40.78744 -111.99695 4238 ft 18 kts 173°
2026-05-04 14:44 40.78612 -111.99663 4238 ft 21 kts 163°
2026-05-04 14:45 40.78485 -111.99558 4236 ft 22 kts 147°
2026-05-04 14:45 40.78425 -111.99437 4237 ft 12 kts 99°
2026-05-04 14:45 40.78410 -111.99321 4236 ft 14 kts 99°
2026-05-04 14:45 40.78412 -111.99185 4236 ft 16 kts 84°
2026-05-04 14:46 40.78423 -111.99030 4237 ft 18 kts 86°
2026-05-04 14:46 40.78432 -111.98936 4236 ft 7 kts 58°
2026-05-04 14:46 40.78482 -111.98931 4236 ft 0 kts 342°
2026-05-04 14:47 40.78486 -111.98931 4236 ft 0 kts 359°